Location: Hopville
(44.8032°N, 123.1329°W)
Time: 16:36:52
(UTC+00:00)

PAYLOAD B - Pass Details

Date: 24 January 2021
Orbit: 850 x 871 km, 99.1° (Epoch: 01 March)

Event Time Altitude Azimuth Distance (km) Brightness Sun altitude
Rises 14:46:33 0° 12° (NNE) 3,454 7.3 -9.6°
Reaches altitude 10° 14:48:57 10° 11° (N) 2,516 6.6 -9.2°
Maximum altitude 14:54:31 72° 288° (WNW) 914 4.2 -8.2°
Drops below altitude 10° 15:00:04 10° 205° (SSW) 2,509 6.6 -7.3°
Sets 15:02:27 0° 203° (SSW) 3,444 7.3 -6.9°
